Location: ?????
(44.4284°N, 135.2222°E)
Time: 04:14:23
(UTC+00:00)

ARIANE 5 R/B - Pass Details

Date: 19 May 2025
Orbit: 614 x 648 km, 98.0° (Epoch: 16 June)

Event Time Altitude Azimuth Distance (km) Brightness Sun altitude
Exits shadow 14:54:19 24° 277° (W) 1,296 4.2 -25.7°
Drops below altitude 10° 14:57:21 10° 321° (NW) 1,995 5.8 -25.7°
Sets 14:59:55 0° 335° (NNW) 2,911 7.0 -25.7°
